Satellite: NOAA-11
Catalog number: 19531
Epoch time:      10223.75113089
Element set:    0177
Inclination:      098.7697 deg
RA of node:       311.8296 deg
Eccentricity:    0.0011664
Arg of perigee:   354.1820 deg
Mean anomaly:     005.9223 deg
Mean motion:   14.14931045 rev/day
Decay rate:      -2.14e-06 rev/day^2
Epoch rev:           12899
Checksum:              295

Satellite: NOAA-12
Catalog number: 21263
Epoch time:      10223.72582260
Element set:    0667
Inclination:      098.7647 deg
RA of node:       236.8787 deg
Eccentricity:    0.0012660
Arg of perigee:   010.1394 deg
Mean anomaly:     350.0026 deg
Mean motion:   14.25647811 rev/day
Decay rate:        1.6e-07 rev/day^2
Epoch rev:           00031
Checksum:              268

Satellite: MET-3/5
Catalog number: 21655
Epoch time:      10224.54908711
Element set:     886
Inclination:      082.5559 deg
RA of node:       268.8162 deg
Eccentricity:    0.0012851
Arg of perigee:   202.5925 deg
Mean anomaly:     157.4670 deg
Mean motion:   13.17025417 rev/day
Decay rate:        5.1e-07 rev/day^2
Epoch rev:           91309
Checksum:              302

Satellite: MET-2/21
Catalog number: 22782
Epoch time:      10223.90061367
Element set:    0856
Inclination:      082.5450 deg
RA of node:       208.2368 deg
Eccentricity:    0.0020782
Arg of perigee:   244.7463 deg
Mean anomaly:     115.1554 deg
Mean motion:   13.83646098 rev/day
Decay rate:        3.7e-07 rev/day^2
Epoch rev:           85578
Checksum:              311

Satellite: OKEAN-4
Catalog number: 23317
Epoch time:      10223.65533031
Element set:    0311
Inclination:      082.5430 deg
RA of node:       302.0896 deg
Eccentricity:    0.0023800
Arg of perigee:   061.5884 deg
Mean anomaly:     298.7748 deg
Mean motion:   14.82845741 rev/day
Decay rate:       1.97e-06 rev/day^2
Epoch rev:           85467
Checksum:              300

Satellite: NOAA-14
Catalog number: 23455
Epoch time:      10223.69754683
Element set:    0157
Inclination:      098.8763 deg
RA of node:       304.0494 deg
Eccentricity:    0.0010327
Arg of perigee:   078.8000 deg
Mean anomaly:     281.4347 deg
Mean motion:   14.13790746 rev/day
Decay rate:       -5.0e-07 rev/day^2
Epoch rev:           80534
Checksum:              302

Satellite: NOAA-15
Catalog number: 25338
Epoch time:      10223.77063533
Element set:    0482
Inclination:      098.6222 deg
RA of node:       209.7097 deg
Eccentricity:    0.0009583
Arg of perigee:   274.5963 deg
Mean anomaly:     085.4105 deg
Mean motion:   14.24848358 rev/day
Decay rate:       2.54e-06 rev/day^2
Epoch rev:           63666
Checksum:              325

Satellite: RESURS
Catalog number: 25394
Epoch time:      10223.63837567
Element set:    0576
Inclination:      098.3044 deg
RA of node:       238.6991 deg
Eccentricity:    0.0002572
Arg of perigee:   064.8649 deg
Mean anomaly:     295.2801 deg
Mean motion:   14.24207405 rev/day
Decay rate:       -6.0e-08 rev/day^2
Epoch rev:           62824
Checksum:              309

Satellite: FENGYUN1
Catalog number: 25730
Epoch time:      10223.86807708
Element set:    0112
Inclination:      098.7867 deg
RA of node:       187.3751 deg
Eccentricity:    0.0023295
Arg of perigee:   106.3577 deg
Mean anomaly:     254.0134 deg
Mean motion:   14.08245290 rev/day
Decay rate:       9.26e-06 rev/day^2
Epoch rev:           57952
Checksum:              309

Satellite: OKEAN-0
Catalog number: 25860
Epoch time:      10224.43360208
Element set:      70
Inclination:      097.8371 deg
RA of node:       195.2356 deg
Eccentricity:    0.0000599
Arg of perigee:   080.7473 deg
Mean anomaly:     279.3809 deg
Mean motion:   14.73654523 rev/day
Decay rate:        7.1e-07 rev/day^2
Epoch rev:           59518
Checksum:              306

Satellite: NOAA-16
Catalog number: 26536
Epoch time:      10223.82958486
Element set:    0960
Inclination:      099.1699 deg
RA of node:       242.6078 deg
Eccentricity:    0.0010537
Arg of perigee:   176.2158 deg
Mean anomaly:     183.9097 deg
Mean motion:   14.12571538 rev/day
Decay rate:       1.35e-06 rev/day^2
Epoch rev:           50968
Checksum:              341

Satellite: NOAA-17
Catalog number: 27453
Epoch time:      10223.92012025
Element set:    0954
Inclination:      098.4266 deg
RA of node:       272.1081 deg
Eccentricity:    0.0011305
Arg of perigee:   339.5661 deg
Mean anomaly:     020.5030 deg
Mean motion:   14.24179901 rev/day
Decay rate:       -2.1e-07 rev/day^2
Epoch rev:           42263
Checksum:              255

Satellite: NOAA-18
Catalog number: 28654
Epoch time:      10223.87989485
Element set:    0440
Inclination:      098.9525 deg
RA of node:       169.9921 deg
Eccentricity:    0.0013316
Arg of perigee:   256.5487 deg
Mean anomaly:     103.4190 deg
Mean motion:   14.11378480 rev/day
Decay rate:       -8.2e-07 rev/day^2
Epoch rev:           26929
Checksum:              339

